Wind_Speed
28 28 28 29 30 31 32 33 35 36 38 38 39 40 40 41 41 42 43 45 47 48 49 50 51 53 54 54 56 57 57 58 59 60 59 59 60 60 60 60 60 60 60
28 28 28 29 31 32 33 35 36 37 39 40 41 42 43 43 44 45 47 49 50 52 53 54 55 56 57 58 59 60 60 61 61 62 62 61 61 61 60 61 61 62 62
28 29 29 30 31 32 34 36 37 38 39 41 43 44 45 46 47 49 51 52 53 55 56 57 59 60 60 61 62 63 63 63 63 63 64 64 63 62 61 60 61 62 62
28 29 30 31 32 33 35 36 38 39 40 42 44 46 47 48 49 52 53 54 56 58 59 61 62 63 63 64 64 65 65 65 65 65 64 65 64 64 63 61 61 62 63
29 29 30 32 33 34 35 37 39 40 42 44 45 47 49 50 52 54 55 57 58 60 61 63 64 65 66 66 66 66 66 66 66 66 65 65 65 65 64 63 63 63 63
30 31 31 32 34 35 36 38 40 42 44 46 48 50 51 53 55 56 58 60 61 62 63 64 65 67 67 68 68 68 68 68 67 67 66 65 66 65 65 65 64 64 63
31 32 33 34 36 37 38 40 42 44 46 48 50 52 53 55 57 58 60 62 63 63 64 65 66 67 67 68 69 69 68 68 68 68 67 67 66 66 66 66 65 64 64
34 35 36 37 37 38 40 41 43 45 47 49 50 52 54 56 57 59 61 62 63 64 66 67 67 67 67 68 69 69 69 69 69 69 68 68 67 67 67 66 66 65 64
35 36 37 37 39 40 41 43 45 46 48 50 52 53 55 57 58 60 62 63 64 66 67 68 68 68 68 69 70 70 70 70 70 69 69 68 68 68 68 67 66 66 65
36 37 38 39 40 42 43 44 46 48 49 51 53 55 56 58 59 61 62 63 64 65 67 68 68 69 69 70 71 71 71 71 71 71 70 68 68 69 68 66 66 67 66
39 40 41 42 43 43 45 46 48 49 51 52 54 55 56 58 59 61 62 63 65 66 67 68 70 71 71 71 71 71 71 71 71 71 70 68 68 67 67 66 66 66 67
42 43 44 44 45 46 48 49 50 51 53 54 55 57 58 59 60 61 63 64 65 66 68 69 70 70 70 69 69 68 69 69 68 67 67 66 67 67 67 66 66 66 67
46 46 47 48 49 50 52 53 53 54 56 56 57 58 59 60 61 62 63 64 64 64 65 66 66 66 67 67 67 66 66 66 66 66 65 65 66 66 65 65 66 66 67
49 50 51 52 53 54 55 56 57 58 59 60 60 61 61 62 62 62 62 62 62 62 62 62 63 63 64 64 64 64 64 64 64 64 63 63 63 63 64 65 65 65 65
53 54 55 56 57 58 59 60 61 62 62 63 63 63 63 62 61 60 60 60 60 60 61 61 61 61 61 61 62 62 62 62 62 63 62 61 61 62 63 63 63 64 64
57 58 60 61 62 62 63 63 64 64 64 64 64 63 62 61 60 59 59 59 59 60 60 60 61 61 61 61 62 62 62 61 62 61 60 59 59 60 61 61 61 62 62
61 63 64 65 66 67 67 67 67 66 66 65 64 63 61 60 60 59 59 59 60 60 60 61 61 61 61 61 61 61 60 59 60 59 59 58 58 59 59 59 60 59 60
66 67 68 69 69 69 69 69 69 68 66 65 64 62 61 60 60 59 59 60 60 61 60 60 60 60 59 59 58 59 58 58 57 56 56 55 56 56 58 58 58 57 57
70 71 72 72 72 71 71 70 69 68 66 65 64 62 61 61 60 60 60 60 60 59 59 58 58 58 57 56 56 57 57 56 55 54 54 54 54 55 56 55 55 55 55
73 74 74 74 73 73 72 70 68 66 65 64 63 62 61 60 60 59 59 58 58 58 57 57 57 56 55 55 55 55 55 54 53 52 52 52 52 52 53 53 52 53 53
76 76 75 75 73 72 71 69 67 65 64 63 61 60 59 59 58 57 57 57 56 56 55 55 54 53 53 52 52 52 52 51 50 50 50 50 49 50 50 50 50 50 50
76 76 75 73 71 70 69 66 65 63 62 61 59 58 58 57 57 56 55 54 54 53 53 52 51 50 50 49 49 49 49 48 48 47 47 47 46 47 47 48 48 48 48
75 74 73 71 68 67 66 64 63 61 60 59 58 57 56 56 55 55 53 53 52 52 50 49 48 47 46 46 46 46 46 46 45 44 44 43 43 44 44 45 45 45 45
73 71 70 68 65 63 62 62 61 60 58 57 56 55 54 53 53 52 52 51 51 49 48 47 46 44 44 45 45 45 44 44 44 42 41 41 41 41 41 42 42 42 42
70 68 67 65 63 61 60 60 59 58 57 55 54 53 52 51 50 50 49 49 48 47 46 45 45 44 44 45 44 44 43 42 41 40 39 39 39 39 39 39 39 39 39
66 65 63 62 61 59 58 57 56 56 54 53 51 50 49 49 48 47 46 45 45 45 45 45 45 44 44 43 43 42 41 40 39 38 37 37 36 37 36 36 36 37 36
Wind_Direction
292 290 288 285 283 282 280 278 277 276 277 278 279 279 280 281 282 283 283 284 285 287 288 289 290 291 292 293 293 294 295 296 296 297 296 296 297 297 296 295 294 293 292
296 294 292 289 287 285 283 281 280 279 280 280 280 281 281 282 283 283 283 284 285 287 288 289 289 290 291 291 292 293 293 294 295 295 295 296 295 295 294 294 293 292 292
299 297 295 292 289 287 285 284 283 282 281 281 282 282 282 283 283 283 283 285 286 287 288 288 289 289 290 291 291 292 293 293 294 294 295 295 295 294 293 292 292 291 291
301 299 296 294 292 290 288 286 285 284 283 283 283 283 284 284 284 283 284 285 285 286 287 288 288 288 289 290 290 291 292 292 293 294 295 295 295 294 293 292 292 291 291
303 301 298 295 293 291 289 288 287 286 285 284 284 284 284 284 284 284 285 285 285 286 286 287 287 288 288 289 290 290 291 292 293 294 294 294 294 294 293 292 292 292 291
306 303 300 298 296 294 292 290 289 288 287 286 286 285 285 284 284 285 285 285 285 286 286 287 287 288 288 289 289 290 291 292 292 293 293 294 294 294 293 293 292 292 291
307 305 302 300 299 297 295 293 291 290 289 289 288 287 287 286 287 287 287 287 287 287 286 286 286 287 288 288 289 290 291 291 292 292 293 293 294 293 293 293 292 291 291
309 307 305 303 302 300 297 296 294 293 292 291 290 289 289 288 288 288 288 288 288 288 287 287 287 287 287 288 289 290 291 291 291 292 293 293 293 293 293 293 292 292 291
311 308 306 305 303 301 299 297 296 295 294 293 292 291 290 290 289 289 289 289 289 288 288 289 288 288 288 289 289 290 290 291 291 292 292 293 293 293 293 292 292 292 292
311 309 308 306 304 303 301 300 299 297 296 295 294 293 292 292 291 291 291 291 290 290 290 290 290 290 290 289 289 290 290 290 291 291 291 292 292 292 293 292 292 292 292
312 311 309 308 306 305 303 302 301 300 299 298 297 296 295 294 294 293 293 292 292 291 291 290 290 291 291 290 289 289 289 290 290 291 291 291 291 291 291 291 292 292 292
312 311 310 308 307 305 304 303 302 301 300 299 298 297 296 295 295 294 293 293 292 292 292 292 292 291 291 290 290 290 290 290 290 290 289 290 289 289 290 290 291 291 292
312 310 309 308 307 305 304 303 303 302 301 300 299 299 298 297 296 295 294 294 294 293 293 293 293 292 291 291 290 290 290 290 290 289 288 288 288 288 288 289 290 291 292
309 309 308 307 306 305 305 304 304 303 302 301 301 300 299 298 297 297 296 295 295 295 294 294 294 293 292 291 291 290 290 290 289 289 288 288 287 288 288 289 290 290 291
308 307 306 306 306 305 305 304 304 304 303 302 302 301 300 299 299 298 297 296 296 295 295 295 294 294 293 292 291 291 291 290 289 289 288 288 287 288 289 289 290 290 291
307 306 305 305 305 305 305 304 304 304 303 303 302 302 301 300 299 299 298 297 296 296 296 295 295 294 293 293 292 292 291 291 290 290 289 288 288 289 289 289 290 291 292
306 305 305 305 305 305 305 304 304 304 303 303 302 301 300 299 299 298 298 297 297 297 296 296 295 295 294 293 292 292 292 292 292 291 289 288 288 288 289 290 290 291 292
305 304 304 304 304 304 304 304 304 303 303 302 302 301 300 299 298 298 297 297 297 297 297 297 296 296 295 294 293 293 293 292 292 291 289 288 289 289 288 288 289 291 292
304 304 304 304 304 304 304 304 304 303 303 302 301 300 299 299 298 298 298 298 298 298 298 298 297 297 296 295 295 294 294 293 292 291 290 290 289 289 289 289 290 291 292
304 304 304 304 304 304 304 304 304 303 302 301 301 300 299 299 298 298 298 299 299 299 300 299 299 298 296 295 295 295 295 294 293 292 292 290 290 290 290 290 290 291 292
304 304 304 304 304 304 304 304 304 303 302 302 301 300 299 298 298 299 299 299 300 301 301 301 300 299 298 297 297 296 296 295 293 293 293 291 290 290 290 290 292 292 292
304 304 304 305 305 305 304 304 303 303 302 301 301 300 299 299 299 300 300 301 301 302 302 302 301 301 300 299 299 298 298 297 295 295 294 292 291 291 291 292 292 293 294
305 305 305 305 305 305 305 304 303 303 302 301 301 300 300 300 301 301 302 302 302 302 302 302 302 302 302 301 301 300 299 298 297 296 295 293 293 292 293 293 293 293 295
305 305 305 305 305 305 305 304 304 304 303 303 303 302 302 302 302 303 303 303 303 303 304 304 304 303 303 301 301 301 300 299 299 298 296 294 294 294 294 295 295 295 296
305 305 305 305 306 305 306 306 306 306 306 306 305 304 304 304 304 304 304 304 304 305 305 305 305 305 304 302 302 302 301 300 300 299 298 296 295 296 296 296 296 297 298
306 306 306 306 306 307 307 307 307 308 308 308 307 306 306 306 306 306 305 305 305 306 306 305 306 306 305 304 303 303 302 301 300 299 298 297 296 297 297 297 298 299 300
Height
5799 5798 5797 5795 5794 5792 5791 5789 5788 5786 5784 5783 5781 5779 5777 5775 5773 5770 5767 5763 5760 5757 5754 5751 5748 5744 5741 5737 5733 5729 5726 5722 5717 5713 5710 5706 5702 5698 5693 5688 5684 5680 5677
5794 5792 5791 5789 5787 5785 5783 5782 5780 5778 5776 5774 5772 5770 5768 5766 5763 5760 5756 5753 5749 5746 5743 5739 5735 5732 5728 5724 5720 5716 5712 5708 5703 5699 5694 5692 5689 5684 5680 5675 5669 5665 5661
5788 5786 5784 5782 5780 5778 5776 5774 5772 5770 5768 5765 5763 5760 5758 5755 5753 5749 5745 5742 5738 5734 5730 5726 5722 5718 5714 5710 5706 5701 5697 5693 5689 5684 5679 5675 5672 5668 5666 5661 5655 5650 5645
5783 5780 5777 5775 5773 5770 5768 5766 5763 5761 5758 5755 5753 5750 5747 5745 5741 5737 5734 5730 5725 5721 5717 5713 5708 5704 5700 5696 5691 5686 5682 5677 5673 5669 5665 5660 5654 5650 5647 5645 5640 5634 5630
5777 5774 5771 5768 5765 5763 5760 5757 5754 5751 5748 5746 5742 5739 5736 5733 5728 5724 5721 5717 5712 5708 5703 5698 5693 5689 5684 5680 5675 5671 5666 5662 5657 5652 5648 5644 5638 5633 5629 5626 5623 5618 5613
5770 5767 5764 5761 5758 5755 5751 5748 5745 5742 5738 5735 5731 5727 5723 5719 5715 5711 5707 5702 5698 5694 5689 5683 5678 5673 5668 5664 5659 5654 5650 5645 5641 5636 5631 5627 5622 5617 5611 5608 5605 5600 5596
5763 5759 5756 5753 5749 5746 5742 5739 5735 5731 5727 5723 5719 5715 5710 5706 5701 5697 5692 5687 5682 5678 5673 5667 5662 5657 5652 5647 5642 5637 5633 5628 5623 5618 5613 5609 5605 5600 5595 5590 5586 5582 5578
5755 5752 5748 5744 5740 5736 5732 5728 5724 5720 5715 5711 5706 5701 5697 5692 5687 5682 5676 5671 5666 5661 5656 5651 5646 5641 5636 5630 5625 5620 5615 5610 5605 5601 5596 5591 5586 5581 5576 5571 5566 5562 5559
5747 5743 5739 5735 5731 5726 5722 5718 5713 5708 5703 5698 5693 5688 5683 5677 5672 5667 5661 5655 5650 5644 5638 5633 5629 5624 5619 5613 5607 5603 5598 5592 5587 5583 5578 5573 5568 5562 5558 5553 5548 5543 5539
5739 5735 5730 5726 5721 5716 5711 5706 5701 5696 5691 5685 5680 5674 5668 5663 5657 5652 5646 5640 5634 5627 5621 5615 5610 5605 5601 5595 5589 5584 5579 5574 5569 5564 5559 5555 5550 5544 5539 5534 5529 5524 5519
5730 5726 5721 5716 5711 5706 5701 5695 5690 5684 5678 5672 5666 5660 5654 5648 5641 5635 5629 5623 5617 5610 5604 5598 5592 5587 5581 5576 5571 5566 5560 5554 5550 5545 5541 5536 5531 5526 5521 5515 5510 5505 5500
5720 5715 5711 5705 5700 5694 5689 5683 5677 5671 5665 5658 5652 5645 5639 5632 5625 5619 5612 5606 5599 5593 5586 5580 5574 5568 5562 5556 5551 5546 5541 5535 5531 5526 5521 5517 5512 5507 5502 5497 5492 5487 5481
5710 5705 5700 5694 5689 5683 5676 5670 5664 5657 5651 5644 5637 5630 5623 5616 5609 5602 5595 5588 5582 5575 5569 5562 5555 5549 5543 5537 5532 5527 5522 5517 5512 5507 5503 5499 5493 5489 5484 5478 5474 5468 5463
5700 5694 5688 5682 5676 5670 5663 5656 5649 5642 5635 5628 5621 5614 5606 5599 5592 5585 5578 5571 5565 5558 5551 5545 5538 5532 5525 5519 5513 5508 5503 5498 5494 5489 5484 5480 5475 5470 5465 5460 5455 5450 5444
5688 5682 5675 5669 5662 5655 5648 5641 5634 5626 5619 5611 5604 5597 5589 5582 5575 5568 5561 5554 5548 5541 5534 5528 5522 5515 5508 5502 5495 5490 5485 5480 5475 5471 5466 5461 5456 5452 5446 5442 5437 5431 5426
5675 5668 5661 5654 5647 5640 5632 5625 5618 5610 5602 5594 5587 5579 5572 5565 5558 5551 5544 5537 5531 5524 5517 5511 5504 5498 5491 5484 5478 5472 5467 5462 5458 5453 5448 5443 5438 5434 5428 5424 5419 5414 5408
5661 5653 5646 5638 5630 5623 5615 5608 5600 5592 5584 5577 5569 5562 5555 5548 5541 5534 5527 5521 5514 5507 5501 5494 5487 5481 5474 5466 5460 5454 5449 5445 5440 5435 5430 5425 5421 5416 5411 5406 5401 5396 5390
5645 5637 5629 5621 5614 5605 5597 5590 5582 5574 5567 5559 5551 5544 5537 5531 5524 5517 5510 5503 5496 5490 5483 5476 5469 5463 5456 5448 5442 5436 5432 5428 5423 5418 5413 5408 5404 5399 5394 5389 5384 5380 5374
5628 5620 5611 5603 5595 5587 5579 5572 5564 5556 5548 5541 5534 5526 5519 5512 5506 5499 5492 5485 5479 5472 5465 5458 5451 5445 5439 5431 5425 5419 5415 5410 5406 5401 5396 5392 5387 5382 5376 5372 5369 5364 5358
5610 5602 5594 5585 5577 5568 5560 5553 5545 5538 5530 5523 5516 5508 5501 5494 5488 5481 5474 5467 5460 5454 5448 5441 5434 5427 5421 5415 5409 5403 5398 5394 5389 5385 5380 5375 5370 5365 5360 5356 5353 5348 5343
5592 5583 5575 5567 5558 5549 5541 5534 5527 5519 5512 5505 5498 5490 5483 5476 5470 5463 5457 5450 5444 5438 5431 5424 5418 5411 5404 5399 5393 5387 5382 5378 5373 5369 5364 5359 5354 5350 5345 5341 5337 5333 5327
5574 5565 5556 5549 5540 5530 5522 5516 5509 5501 5494 5487 5480 5473 5466 5459 5453 5447 5440 5434 5427 5421 5415 5409 5402 5396 5389 5383 5378 5372 5367 5362 5358 5354 5349 5344 5339 5335 5330 5326 5322 5317 5312
5555 5546 5538 5531 5523 5513 5504 5497 5491 5483 5477 5470 5464 5457 5450 5443 5437 5430 5424 5418 5412 5406 5400 5394 5388 5382 5376 5370 5364 5358 5353 5348 5343 5339 5334 5330 5325 5321 5317 5313 5308 5303 5298
5537 5528 5520 5513 5506 5497 5488 5480 5473 5466 5460 5454 5447 5441 5434 5429 5422 5415 5409 5403 5397 5391 5385 5379 5374 5368 5363 5357 5351 5345 5340 5335 5330 5325 5321 5316 5312 5308 5304 5300 5295 5290 5285
5520 5511 5503 5495 5488 5481 5473 5465 5457 5451 5445 5439 5432 5426 5419 5413 5408 5401 5395 5389 5383 5376 5371 5366 5360 5355 5350 5344 5338 5332 5327 5322 5317 5312 5308 5304 5300 5296 5292 5288 5283 5278 5273
5503 5495 5487 5480 5473 5465 5458 5451 5443 5436 5430 5424 5418 5412 5405 5399 5393 5388 5382 5376 5370 5364 5358 5352 5347 5341 5336 5330 5325 5320 5314 5309 5305 5301 5297 5293 5289 5285 5281 5276 5272 5267 5262